Regional Weather Roundup
Issued by NWS

Home | Current Version | Previous Version | Graphics & Text | Print | Product List | Glossary On
Versions: 1 2 3 4 5 6 7 8 9 10 11 12 13 14 15 16 17 18 19 20 21 22 23 24 25 26 27 28 29 30 31 32 33 34 35 36 37 38 39 40 41 42 43 44 45 46 47 48
000
ASUS45 KBOU 220807
RWRCO

WEATHER ROUNDUP FOR COLORADO
NATIONAL WEATHER SERVICE DENVER/BOULDER CO
200 AM MDT MON SEP 22 2014

NOTE: "FAIR" INDICATES FEW OR NO CLOUDS BELOW 12000 FEET WITH NO
SIGNIFICANT WEATHER AND/OR OBSTRUCTIONS TO VISIBILITY.

COZ001>005-013-030-031-220900-
...NORTHWEST COLORADO...

CITY           SKY/WX    TMP DP  RH WIND       PRES   REMARKS
CRAIG          PTCLDY    57  51  80 E7G18     30.26F
HAYDEN         MOCLDY    54  48  82 NE5       30.29S
MEEKER         CLOUDY    55  51  86 E5        30.27S
MOUNT WERNER   NOT AVBL
STEAMBOAT SPGS MOCLDY    52  50  93 NW3       30.32R
WALDEN         CLOUDY    50  45  81 SE3       30.40F
$$

COZ006>008-011-220900-
...WEST CENTRAL VALLEYS...

CITY           SKY/WX    TMP DP  RH WIND       PRES   REMARKS
GRAND JUNCTION MOCLDY    62  56  80 E8        30.19F
MONTROSE       LGT RAIN  61  58  90 SE6       30.31R
EAGLE          CLOUDY    55  55 100 NW6       30.37R
RIFLE          CLOUDY    59  57  93 S5        30.25F
DELTA          RAIN      63  59  89 E7        30.28R
NUCLA          CLOUDY    59  55  88 CALM      30.33F
$$

COZ017>023-064>068-220900-
...SOUTHWEST COLORADO...

CITY           SKY/WX    TMP DP  RH WIND       PRES   REMARKS
DURANGO        CLOUDY    63  52  67 SE7       30.35R
CORTEZ         LGT RAIN  61  59  93 W5        30.30R
PAGOSA SPRINGS CLOUDY    58  49  71 CALM      30.42S
TELLURIDE      NOT AVBL
WOLF CREEK PAS SNOW      41  41 100 S8G21     30.64F VSB<1/4
$$

COZ009-010-012-014-032>034-037-058>063-220900-
...CENTRAL COLORADO...

CITY           SKY/WX    TMP DP  RH WIND       PRES   REMARKS
ASPEN          LGT RAIN  53  50  89 SW5       30.38R
BUENA VISTA    DRIZZLE   54  52  94 SE6       30.43F
COPPER MTN     CLOUDY    46  39  76 S18       30.63F
BERTHOUD PASS  CLOUDY    37  36  93 SE6       30.66F
COTTONWOOD PAS RAIN      52  48  87 SE9       30.52F VSB 1/4
GUNNISON       CLOUDY    54  46  76 CALM      30.41R
KREMMLING      RAIN      50  46  87 CALM      30.41S
LEADVILLE      CLOUDY    47  47 100 CALM      30.50S
MONARCH PASS   FOG       43  41  93 S14       30.74F VSB 1/4
SALIDA         CLOUDY    56  53  87 SE3       30.47F
SUNLIGHT       FOG       46  46 100 CALM      30.57R VSB 3/4
WILKERSON PASS NOT AVBL
$$

COZ069>075-220900-
...SAN LUIS VALLEY/SANGRE DE CRISTO MOUNTAINS...

CITY           SKY/WX    TMP DP  RH WIND       PRES   REMARKS
ALAMOSA        CLOUDY    60  50  69 S13       30.40S
LA VETA PASS   MOCLDY    45  43  93 S6        30.57F
SAGUACHE       NOT AVBL
$$

COZ035-036-038>040-220900-
...NORTHERN COLORADO FRONT RANGE...

CITY           SKY/WX    TMP DP  RH WIND       PRES   REMARKS
DENVER INTL AP MOCLDY    57  47  69 S10       30.26F
DMNS CITY PARK   N/A     59  48  66 S7G15     30.24F
AURORA         MOCLDY    59  45  60 S18       30.28F
FRONT RANGE AP PTCLDY    59  46  63 S12G18    30.28F
ERIE MUNI ARPT NOT AVBL
BOULDER MUN AP LGT RAIN  57  54  88 CALM      30.24F
CENTENNIAL     MOCLDY    60  45  57 S18       30.29F
BROOMFIELD     MOCLDY    59  55  88 S3        30.26F
FORT COLLINS   MOCLDY    57  46  67 E6        30.25F
LONGMONT       MOCLDY    58  55  88 CALM      30.25F
$$

COZ041-046-047-076>085-087-088-220900-
...PIKES PEAK/PALMER DIVIDE AND SOUTHERN FOOTHILLS...

CITY           SKY/WX    TMP DP  RH WIND       PRES   REMARKS
COLO. SPRINGS  CLOUDY    60  41  49 S9        30.38F
A. F. ACADEMY  CLOUDY    59  41  51 S10       30.38F
ELLICOTT       NOT AVBL
FALCON         CLOUDY    56  40  56 SE13G18   30.40F
FORT CARSON    CLOUDY    60  43  52 S5        30.35F
LIMON          PTCLDY    51  38  60 SE9       30.34F
MONUMENT HILL  PTCLDY    54  41  62 S22       30.36F
TRINIDAD       CLOUDY    60  57  89 NW3       30.34F
$$

COZ042>045-048>051-090-091-220900-
...NORTHEAST COLORADO...

CITY           SKY/WX    TMP DP  RH WIND       PRES   REMARKS
GREELEY ARPT   PTCLDY    61  52  72 SE7       30.26S
AKRON          CLOUDY    60  40  47 S14       30.29F
BURLINGTON     MOCLDY    57  40  52 S14       30.32F
WRAY           CLOUDY    64  40  42 SE7       30.29F
STERLING       CLOUDY    64  45  48 S12       30.26F
HOLYOKE        PTCLDY    59  43  55 SE6       30.29F
FORT MORGAN    CLOUDY    56  40  55 E6        30.29F
$$

COZ086-089-092>099-220900-
...SOUTHEAST COLORADO...

CITY           SKY/WX    TMP DP  RH WIND       PRES   REMARKS
PUEBLO         CLOUDY    63  46  54 E12       30.28F
LA JUNTA       MOCLDY    60  43  53 E6        30.30F
LAMAR          PTCLDY    54  42  64 E3        30.31R
SPRINGFIELD      N/A     53  46  77 SW5       30.34S
$$



USA.gov is the U.S. government's official web portal to all federal, state and local government web resources and services.